Location: Balaclava NSW 2575, Australia
(34.4510°S, 150.4953°E)
Time: 06:13:51
(UTC+10:00)

Vanguard 2 - Pass Details

Date: 22 June 2021
Orbit: 552 x 2937 km, 32.9° (Epoch: 05 August)

Event Time Altitude Azimuth Distance (km) Brightness Sun altitude
Rises 13:36:00 0° 271° (W) 6,173 12.5 27.8°
Reaches altitude 10° 13:43:11 10° 293° (WNW) 5,522 12.7 27.1°
Maximum altitude 13:50:15 14° 318° (NW) 5,379 13.6 26.5°
Drops below altitude 10° 13:57:38 10° 343° (NNW) 5,750 13.6 25.7°
Sets 14:05:42 0° 4° (N) 6,600 13.1 24.9°
